DateTime,Index
2002082806,0.0
2002082812,0.0
2002082818,0.0
2002082900,0.0
2002082906,1225.0
2002082912,2025.0
2002082918,2025.0
2002083000,3025.0
2002083006,3025.0
2002083012,4900.0
2002083018,6400.0
2002083100,8100.0
2002083106,12100.0
2002083112,12100.0
2002083118,11025.0
2002090100,11025.0
2002090106,12100.0
2002090112,12100.0
2002090118,11025.0
2002090200,10000.0
2002090206,9025.0
2002090212,8100.0
2002090218,8100.0
2002090300,8100.0
2002090306,8100.0
2002090312,8100.0
2002090318,8100.0
2002090400,8100.0
2002090406,8100.0
2002090412,8100.0
2002090418,9025.0
2002090500,9025.0
2002090506,8100.0
2002090512,8100.0
2002090518,8100.0
2002090600,8100.0
2002090606,7225.0
2002090612,7225.0
2002090618,6400.0
2002090700,4900.0
2002090706,4900.0
2002090712,4225.0
2002090718,1225.0
2002090800,0.0
2002090806,0.0
2002090812,0.0
